Content
SEND FEEDBACK

Daily
Averages
Monthly
Summary
Brazil

RIO DE JANEIRO, RIO DE JANEIRO


Home > South America > Brazil > Rio De Janeiro
Elevation: 20 feet     Latitude: 22 49S     Longitude: 043 15W

WEATHER
 
SELECT A DAY
Number of Records: 197,075;   Date Range: 6/30/96 - 11/19/14
 
SHARE

PRINT THIS DATA

[ ← Previous Day ]
WEATHER ALMANAC - AUGUST 1, 2013
[ Next Day → ]
[ °C ]   °F
Weather ElementAverageHighLow
Temperature67.9 °F83 °F (3:00 pm)55.4 °F (6:00 am)
Dewpoint60.2 °F66.2 °F (10:15 am)55.4 °F (5:00 am)
Humidity77.8 %100 % (6:00 am)37 % (3:00 pm)
Barometer30.08 in30.14 in (9:00 am)30.01 in (3:00 pm)
Wind Speed3.3 mph8.1 mph (5:00 pm)
Weather ElementAverage
Visibility4 mi
Wind DirectionESE (126.9 °)

Weather ElementTotal
Precipitation---
Cooling Degree Days4.2 (Base 65)
Growing Degree Days19.2 (Base 50)
Averaged from 32 records on August 1, 2013
WEATHER CONDITIONS BREAKOUT
WIND DIRECTION BREAKOUT
WEATHER BY HOUR - AUGUST 1, 2013
[ °C ]   °F
Local TimeTemperatureDewpointHumidityBarometerVisibilityWind DirectionWind SpeedGust SpeedPrecipitationEventsConditions
12:00 AM62.6 °F59.0 °F88 %30.12 inSE (130°)2.3 mphClear
1:00 AM62.6 °F59.0 °F88 %30.12 inSE (140°)2.3 mphClear
2:00 AM60.8 °F59.0 °F94 %30.12 inCalmClear
3:00 AM60.8 °F59.0 °F94 %30.09 inCalmClear
4:00 AM59.0 °F57.2 °F94 %30.09 inNNW (330°)4.6 mphClear
5:00 AM57.2 °F55.4 °F94 %30.06 in4.3 miCalm
6:00 AM55.4 °F55.4 °F100 %30.09 in2.5 miCalmMist
6:25 AM59.0 °F55.4 °F88 %30.09 in1.6 miCalmMist
6:35 AM59.0 °F57.2 °F94 %30.09 in0.3 miCalmFogFog
7:00 AM62.6 °F60.8 °F94 %30.09 in0.1 miNE (40°)3.5 mphMostly Cloudy
8:00 AM62.6 °F60.8 °F94 %30.12 inCalmMostly Cloudy
9:00 AM63.0 °F61.0 °F92 %30.14 in0.0 miNNW (330°)2.3 mphFogPartial Fog
9:00 AM62.6 °F60.8 °F94 %30.12 inNNW (330°)2.3 mphMostly Cloudy
10:00 AM62.6 °F62.6 °F100 %30.12 in0.4 miNorth (350°)3.5 mphFogFog
10:15 AM66.2 °F66.2 °F100 %30.12 in2.5 miSSE (160°)3.5 mphScattered Clouds
11:00 AM69.8 °F64.4 °F83 %30.12 in3.1 miNorth (10°)3.5 mphPartly Cloudy
12:00 PM75.2 °F60.8 °F61 %30.09 inNNW (340°)3.5 mphClear
12:00 PM76.0 °F61.0 °F50 %30.10 in6.0 miNNW (340°)3.5 mphHaze
1:00 PM80.6 °F59.0 °F48 %30.06 inNNW (330°)3.5 mphClear
2:00 PM82.4 °F60.8 °F48 %30.04 inNE (50°)4.6 mphClear
3:00 PM83.0 °F61.0 °F37 %30.02 in7.0 miESE (110°)6.9 mphHaze
3:00 PM82.4 °F60.8 °F48 %30.01 inESE (110°)6.9 mphClear
4:00 PM78.8 °F62.6 °F57 %30.01 inESE (120°)6.9 mphClear
5:00 PM77.0 °F60.8 °F57 %30.01 inESE (120°)8.1 mphClear
6:00 PM73.4 °F60.8 °F65 %30.01 inSE (140°)8.1 mphClear
6:00 PM73.0 °F60.0 °F55 %30.03 in12.0 miSE (140°)8.1 mph
7:00 PM71.6 °F60.8 °F69 %30.04 inSE (140°)5.8 mphClear
8:00 PM68.0 °F60.8 °F78 %30.04 inESE (110°)2.3 mphClear
9:00 PM68.0 °F60.0 °F69 %30.06 in12.0 miNE (40°)2.3 mph
9:00 PM68.0 °F60.8 °F78 %30.06 inNE (40°)2.3 mphClear
10:00 PM66.2 °F60.8 °F83 %30.06 inENE (60°)2.3 mphClear
11:00 PM64.4 °F62.6 °F94 %30.06 in4.3 miNE (50°)3.5 mph
Hourly data recorded from SBGL, located miles away from Rio De Janeiro, Rio De Janeiro







STORIES FROM OUR PARTNERS